"Pseudo-MPEC" for ZTF02V4

Created 2019 Feb 19 11:18:11 UT using Find_Orb

Click here for an explanation of pseudo-MPECs

 
 Astrometry: 
     ZTF02V4  C2019 02 08.27734 09 07 45.04 +33 48 23.1    ~292I 20.7 rUNEOCPI41
     ZTF02V4  C2019 02 08.31345 09 07 46.01 +33 48 23.2    ~292I 20.8 rUNEOCPI41
     ZTF02V4  C2019 02 08.32302 09 07 46.32 +33 48 22.9    ~292I 20.9 rUNEOCPI41
     ZTF02V4  C2019 02 08.38384 09 07 47.99 +33 48 22.4    ~292I 20.8 rUNEOCPI41

Station data:
(I41) Palomar Mountain--ZTF  (N33.357340 W116.859780)  US/California. 1.2-m
   f/2.44 Oschin Schmidt + CCD.

Orbital elements:  ZTF02V4
   Perihelion 2019 Jan 31.874823 +/- 39.9 TT = 20:59:44 (JD 2458515.374823)
Epoch 2019 Feb  8.0 TT = JDT 2458522.5   Earth MOID: 0.3256   Ma: 0.0098
M   1.99924621 +/- 12               (J2000 ecliptic)          AutoNEOCP
n   0.28058899 +/- 0.227            Peri.   63.16503 +/- 80
a   2.31076420 +/- 1.25             Node    67.60837 +/- 42
e   0.4368868 +/- 0.232             Incl.    4.43537 +/- 2.3
P   3.51                   H 22.1   G  0.15   U 11.7  SR
q 1.30122162 +/- 0.273    Q 3.32030677 +/- 78.3
From 4 observations 2019 Feb. 8 (2.6 hr); mean residual 0".23
Residuals in arcseconds: 
190208 I41  .05+  .27+    190208 I41  .27+  .38-    
190208 I41  .31-  .08-    190208 I41  .01-  .19+    

Ephemerides (geocentric):
Date (UTC) HH   RA              Dec         delta   r     elong  mag " sig PA
---- -- -- --  -------------   -----------  ------ ------ -----  --- ---- ---
2019 02 19 11  09 15 42.543   +33 11 58.95  .35034 1.3143 155.0 21.4 5801  18
2019 02 19 12  09 15 44.541   +33 11 42.89  .35044 1.3143 154.9 21.4 5902  18
2019 02 19 13  09 15 46.541   +33 11 26.77  .35054 1.3144 154.9 21.4 6007  18
2019 02 19 14  09 15 48.543   +33 11 10.60  .35064 1.3145 154.9 21.4 6114  18
2019 02 19 15  09 15 50.547   +33 10 54.38  .35074 1.3145 154.9 21.4 6224  18
2019 02 19 16  09 15 52.553   +33 10 38.10  .35084 1.3146 154.9 21.4 6338  18
2019 02 19 17  09 15 54.561   +33 10 21.76  .35094 1.3146 154.8 21.4 6455  18
2019 02 19 18  09 15 56.570   +33 10 05.37  .35105 1.3147 154.8 21.4 6576  18
2019 02 19 19  09 15 58.581   +33 09 48.92  .35115 1.3148 154.8 21.4 6701  19
2019 02 19 20  09 16 00.594   +33 09 32.42  .35125 1.3148 154.8 21.4 6830  19
2019 02 19 21  09 16 02.609   +33 09 15.86  .35135 1.3149 154.7 21.4 6963  19
2019 02 19 22  09 16 04.626   +33 08 59.25  .35146 1.3149 154.7 21.4 7101  19
2019 02 19 23  09 16 06.645   +33 08 42.58  .35156 1.3150 154.7 21.4 7243  19
2019 02 20 00  09 16 08.665   +33 08 25.86  .35166 1.3151 154.7 21.4 7390  19
2019 02 20 01  09 16 10.687   +33 08 09.08  .35177 1.3151 154.6 21.4 7542  19
2019 02 20 02  09 16 12.711   +33 07 52.25  .35187 1.3152 154.6 21.4 7700  20
2019 02 20 03  09 16 14.738   +33 07 35.36  .35197 1.3152 154.6 21.4 7864  20
2019 02 20 04  09 16 16.765   +33 07 18.42  .35208 1.3153 154.6 21.4 8034  20
2019 02 20 05  09 16 18.795   +33 07 01.42  .35218 1.3154 154.5 21.4 8210  20
2019 02 20 06  09 16 20.827   +33 06 44.36  .35229 1.3154 154.5 21.4 8393  20
2019 02 20 07  09 16 22.860   +33 06 27.26  .35239 1.3155 154.5 21.4 8583  20
2019 02 20 08  09 16 24.896   +33 06 10.09  .35249 1.3155 154.5 21.4 8781  21
2019 02 20 09  09 16 26.933   +33 05 52.88  .35260 1.3156 154.4 21.4 8987  21
2019 02 20 10  09 16 28.972   +33 05 35.60  .35270 1.3157 154.4 21.4 9202  21
2019 02 20 11  09 16 31.013   +33 05 18.28  .35281 1.3157 154.4 21.4 9425  21
2019 02 20 12  09 16 33.056   +33 05 00.89  .35292 1.3158 154.4 21.4 9659  21
2019 02 20 13  09 16 35.100   +33 04 43.46  .35302 1.3158 154.4 21.4 9902  22
2019 02 20 14  09 16 37.147   +33 04 25.97  .35313 1.3159 154.3 21.4 169'  22
2019 02 20 15  09 16 39.195   +33 04 08.42  .35323 1.3160 154.3 21.4 174'  22
2019 02 20 16  09 16 41.245   +33 03 50.82  .35334 1.3160 154.3 21.4 178'  22
2019 02 20 17  09 16 43.297   +33 03 33.17  .35345 1.3161 154.3 21.4 183'  23
2019 02 20 18  09 16 45.352   +33 03 15.46  .35355 1.3161 154.2 21.4 188'  23
2019 02 20 19  09 16 47.407   +33 02 57.70  .35366 1.3162 154.2 21.4 194'  23
2019 02 20 20  09 16 49.465   +33 02 39.88  .35377 1.3163 154.2 21.4 199'  23
2019 02 20 21  09 16 51.525   +33 02 22.01  .35387 1.3163 154.2 21.4 205'  24
2019 02 20 22  09 16 53.586   +33 02 04.08  .35398 1.3164 154.1 21.4 211'  24
2019 02 20 23  09 16 55.650   +33 01 46.10  .35409 1.3165 154.1 21.4 218'  24
2019 02 21 00  09 16 57.715   +33 01 28.07  .35420 1.3165 154.1 21.4 225'  25
2019 02 21 01  09 16 59.782   +33 01 09.98  .35430 1.3166 154.1 21.4 232'  25
2019 02 21 02  09 17 01.851   +33 00 51.84  .35441 1.3166 154.0 21.4 240'  25
2019 02 21 03  09 17 03.922   +33 00 33.64  .35452 1.3167 154.0 21.4 248'  26
2019 02 21 04  09 17 05.995   +33 00 15.39  .35463 1.3168 154.0 21.4 256'  26
2019 02 21 05  09 17 08.070   +32 59 57.09  .35474 1.3168 154.0 21.4 265'  27
2019 02 21 06  09 17 10.146   +32 59 38.73  .35485 1.3169 153.9 21.4 275'  27
2019 02 21 07  09 17 12.225   +32 59 20.32  .35496 1.3170 153.9 21.4 285'  27
2019 02 21 08  09 17 14.305   +32 59 01.86  .35507 1.3170 153.9 21.4 296'  28
2019 02 21 09  09 17 16.387   +32 58 43.34  .35518 1.3171 153.9 21.4 307'  28
2019 02 21 10  09 17 18.472   +32 58 24.77  .35529 1.3172 153.9 21.4 319'  29